Location: City of Moscow
(46.7306°N, 116.9989°W)
Time: 04:49:08
(UTC+00:00)

COSMOS 2455 - Pass Details

Date: 11 December 2025
Orbit: 898 x 910 km, 67.1° (Epoch: 13 January)

Event Time Altitude Azimuth Distance (km) Brightness Sun altitude
Exits shadow 12:47:29 36° 211° (SSW) 1,402 3.6 -25.6°
Drops below altitude 10° 12:51:33 10° 178° (S) 2,583 5.3 -24.9°
Sets 12:54:09 0° 171° (S) 3,518 6.1 -24.5°
